EW1714 Weather Reports


Display with metric or nautical units.
time (UTC)temp
F
wind
direction
speed
MPH
gust
MPH
rain 1hr
in
rain 24hr
in
rain mn
in
humidity
%
barometer
mb
20260508140510 57 202 0.0 5.0 0.00 0.00 0.00 43 1010.3
20260508140026 57 352 0.0 4.0 0.00 0.00 0.00 47 1010.3
20260508135511 56 330 0.0 7.0 0.00 0.00 0.00 44 1010.3
20260508135013 56 97 1.0 8.0 0.00 0.00 0.00 43 1010.3
20260508134525 56 351 1.0 8.0 0.00 0.00 0.00 44 1010.3
20260508134013 56 307 1.0 7.0 0.00 0.00 0.00 42 1010.4
20260508133510 56 98 0.0 6.0 0.00 0.00 0.00 42 1010.4
20260508133017 56 223 0.0 7.0 0.00 0.00 0.00 44 1010.3
20260508132503 55 186 1.0 8.0 0.00 0.00 0.00 48 1010.2
20260508132004 54 338 0.0 8.0 0.00 0.00 0.00 47 1010.3
20260508131520 53 211 0.0 3.0 0.00 0.00 0.00 48 1010.3
20260508131008 53 3 0.0 3.0 0.00 0.00 0.00 47 1010.4
20260508130507 52 166 0.0 13.0 0.00 0.00 0.00 50 1010.3
20260508130024 52 340 0.0 13.0 0.00 0.00 0.00 52 1010.4
20260508125510 52 267 0.0 6.0 0.00 0.00 0.00 50 1010.4
20260508125012 51 359 1.0 9.0 0.00 0.00 0.00 52 1010.5
20260508124528 51 246 0.0 9.0 0.00 0.00 0.00 52 1010.4
20260508124011 50 359 0.0 3.0 0.00 0.00 0.00 54 1010.5
20260508123510 50 23 0.0 5.0 0.00 0.00 0.00 54 1010.5
20260508123029 50 327 0.0 5.0 0.00 0.00 0.00 55 1010.5
20260508122507 49 219 0.0 0.0 0.00 0.00 0.00 56 1010.5
20260508122013 49 250 0.0 0.0 0.00 0.00 0.00 58 1010.5
20260508121530 48 360 0.0 0.0 0.00 0.00 0.00 64 1010.5
20260508121004 47 356 0.0 0.0 0.00 0.00 0.00 66 1010.4
20260508120506 46 279 0.0 0.0 0.00 0.00 0.00 65 1010.5
20260508120021 46 278 0.0 0.0 0.00 0.00 0.00 67 1010.6
20260508115508 45 278 0.0 0.0 0.00 0.00 0.00 68 1010.6
20260508115008 44 278 0.0 0.0 0.00 0.00 0.00 71 1010.5
20260508114523 43 229 0.0 0.0 0.00 0.00 0.00 75 1010.4
20260508114005 42 229 0.0 0.0 0.00 0.00 0.00 78 1010.4
20260508113503 42 161 0.0 0.0 0.00 0.00 0.00 82 1010.5
20260508113009 42 161 0.0 0.0 0.00 0.00 0.00 83 1010.4
20260508112504 41 161 0.0 0.0 0.00 0.00 0.00 84 1010.4
20260508112006 41 161 0.0 0.0 0.00 0.00 0.00 86 1010.4
20260508111514 40 161 0.0 0.0 0.00 0.00 0.00 86 1010.4
20260508111004 40 161 0.0 0.0 0.00 0.00 0.00 87 1010.4
20260508110501 39 161 0.0 0.0 0.00 0.00 0.00 87 1010.3
20260508110002 39 161 0.0 0.0 0.00 0.00 0.00 87 1010.2
20260508105503 39 161 0.0 0.0 0.00 0.00 0.00 87 1010.1
20260508105002 39 161 0.0 0.0 0.00 0.00 0.00 88 1010.1
20260508104507 38 161 0.0 0.0 0.00 0.00 0.00 90 1010.1
20260508104004 38 161 0.0 0.0 0.00 0.00 0.00 89 1010.2
20260508103504 37 161 0.0 0.0 0.00 0.00 0.00 89 1010.2
20260508103006 37 161 0.0 0.0 0.00 0.00 0.00 89 1010.1
20260508102502 37 161 0.0 0.0 0.00 0.00 0.00 88 1010.0
20260508102003 37 161 0.0 0.0 0.00 0.00 0.00 88 1009.9
20260508101511 37 161 0.0 0.0 0.00 0.00 0.00 87 1009.9
20260508101004 37 161 0.0 0.0 0.00 0.00 0.00 87 1009.8
20260508100503 37 161 0.0 0.0 0.00 0.00 0.00 88 1009.7
20260508100015 37 161 0.0 0.0 0.00 0.00 0.00 88 1009.7
20260508095507 37 161 0.0 0.0 0.00 0.00 0.00 88 1009.8
20260508095006 37 161 0.0 0.0 0.00 0.00 0.00 88 1009.7
20260508094502 37 161 0.0 0.0 0.00 0.00 0.00 88 1009.6
20260508094003 37 161 0.0 0.0 0.00 0.00 0.00 88 1009.5
20260508093503 37 161 0.0 0.0 0.00 0.00 0.00 88 1009.3
20260508093003 37 161 0.0 0.0 0.00 0.00 0.00 88 1009.4
20260508092502 37 161 0.0 0.0 0.00 0.00 0.00 88 1009.3
20260508092005 37 161 0.0 0.0 0.00 0.00 0.00 87 1009.3
20260508091506 37 161 0.0 0.0 0.00 0.00 0.00 87 1009.4
20260508091003 37 161 0.0 0.0 0.00 0.00 0.00 87 1009.4
20260508090505 37 161 0.0 0.0 0.00 0.00 0.00 87 1009.4
20260508090015 37 161 0.0 0.0 0.00 0.00 0.00 87 1009.4
20260508085503 37 161 0.0 0.0 0.00 0.00 0.00 87 1009.4
20260508085004 37 161 0.0 0.0 0.00 0.00 0.00 86 1009.4
20260508084514 37 161 0.0 0.0 0.00 0.00 0.00 85 1009.3
20260508084006 37 161 0.0 0.0 0.00 0.00 0.00 85 1009.4
20260508083509 38 161 0.0 0.0 0.00 0.00 0.00 85 1009.4
20260508083020 38 161 0.0 0.0 0.00 0.00 0.00 84 1009.4
20260508082503 38 161 0.0 0.0 0.00 0.00 0.00 84 1009.3
20260508082003 38 161 0.0 0.0 0.00 0.00 0.00 85 1009.2
20260508081503 38 161 0.0 0.0 0.00 0.00 0.00 85 1009.1
20260508081002 38 161 0.0 0.0 0.00 0.00 0.00 85 1009.1
20260508080504 38 161 0.0 0.0 0.00 0.00 0.00 84 1009.1
20260508080007 38 161 0.0 0.0 0.00 0.00 0.00 83 1009.1
20260508075505 39 161 0.0 0.0 0.00 0.01 0.00 83 1008.9
20260508075006 39 161 0.0 0.0 0.00 0.01 0.00 82 1008.7
20260508074510 39 161 0.0 0.0 0.00 0.01 0.00 83 1008.6
20260508074003 39 161 0.0 0.0 0.00 0.01 0.00 83 1008.6
20260508073503 40 161 0.0 0.0 0.00 0.01 0.00 83 1008.4
20260508073016 40 161 0.0 0.0 0.00 0.01 0.00 82 1008.3
20260508072506 40 161 0.0 0.0 0.00 0.01 0.00 82 1008.3
20260508072006 40 161 0.0 0.0 0.00 0.01 0.00 82 1008.3
20260508071521 40 161 0.0 0.0 0.00 0.01 0.00 82 1008.2
20260508071006 40 161 0.0 0.0 0.00 0.01 0.00 81 1008.2
20260508070506 40 161 0.0 0.0 0.00 0.01 0.00 81 1008.2
20260508070018 40 161 0.0 0.0 0.00 0.01 0.00 81 1008.2
20260508065505 41 161 0.0 0.0 0.00 0.01 0.00 80 1008.2
20260508065007 41 161 0.0 0.0 0.00 0.01 0.00 80 1008.2
20260508064508 41 161 0.0 0.0 0.00 0.01 0.00 79 1008.2
20260508064010 41 161 0.0 0.0 0.00 0.01 0.00 79 1008.3
20260508063505 41 161 0.0 0.0 0.00 0.01 0.00 79 1008.4
20260508063014 41 161 0.0 0.0 0.00 0.01 0.00 78 1008.3
20260508062504 41 161 0.0 0.0 0.00 0.01 0.00 78 1008.3
20260508062006 41 161 0.0 0.0 0.00 0.01 0.00 78 1008.3
20260508061519 42 161 0.0 0.0 0.00 0.01 0.00 77 1008.4
20260508061007 42 161 0.0 0.0 0.00 0.01 0.00 76 1008.4
20260508060512 42 161 0.0 0.0 0.00 0.01 0.00 76 1008.5
20260508060023 42 161 0.0 0.0 0.00 0.01 0.00 76 1008.5
20260508055506 43 161 0.0 0.0 0.00 0.01 0.00 76 1008.5
20260508055007 43 161 0.0 0.0 0.00 0.01 0.00 76 1008.7
20260508054509 43 161 0.0 0.0 0.00 0.01 0.00 75 1008.7
20260508054003 43 161 0.0 0.0 0.00 0.01 0.00 74 1008.7
20260508053504 43 161 0.0 0.0 0.00 0.01 0.00 74 1008.7
20260508053015 44 161 0.0 0.0 0.00 0.01 0.00 73 1008.7
20260508052507 44 161 0.0 0.0 0.00 0.01 0.00 72 1008.7
20260508052006 44 161 0.0 0.0 0.00 0.01 0.00 72 1008.8
20260508051516 44 161 0.0 0.0 0.00 0.01 0.00 71 1008.8
20260508051007 45 161 0.0 0.0 0.00 0.01 0.00 70 1009.0
20260508050508 45 161 0.0 0.0 0.00 0.01 0.00 70 1009.0
20260508050022 45 161 0.0 0.0 0.00 0.01 0.00 70 1009.0
20260508045507 45 161 0.0 0.0 0.00 0.01 0.00 69 1009.0
20260508045007 46 161 0.0 0.0 0.00 0.01 0.00 70 1009.0
20260508044526 46 161 0.0 0.0 0.00 0.01 0.00 67 1009.1
20260508044008 46 161 0.0 0.0 0.00 0.01 0.00 66 1009.1
20260508043507 47 161 0.0 0.0 0.00 0.01 0.00 67 1009.2
20260508043048 47 161 0.0 0.0 0.00 0.01 0.00 67 1009.2
20260508042506 47 161 0.0 0.0 0.00 0.01 0.00 65 1009.2
20260508042004 47 161 0.0 0.0 0.00 0.01 0.00 66 1009.2
20260508041512 48 161 0.0 0.0 0.00 0.01 0.00 62 1009.1
20260508041007 48 161 0.0 0.0 0.00 0.01 0.00 62 1009.1
20260508040504 49 161 0.0 0.0 0.00 0.01 0.00 61 1009.1
20260508040023 49 161 0.0 0.0 0.00 0.01 0.00 62 1009.1
20260508035504 49 161 0.0 0.0 0.00 0.01 0.01 60 1009.1
20260508035007 49 161 0.0 0.0 0.00 0.01 0.01 60 1009.1
20260508034522 50 161 0.0 0.0 0.00 0.01 0.01 57 1009.1
20260508034010 50 161 0.0 0.0 0.00 0.01 0.01 56 1009.1
20260508033510 50 161 0.0 0.0 0.00 0.01 0.01 55 1009.1
20260508033024 50 161 0.0 0.0 0.00 0.01 0.01 56 1009.1
20260508032507 50 161 0.0 0.0 0.00 0.01 0.01 54 1009.1
20260508032009 50 161 0.0 0.0 0.00 0.01 0.01 54 1009.1
20260508031527 50 160 0.0 0.0 0.00 0.01 0.01 54 1009.0
20260508031013 50 161 0.0 0.0 0.00 0.01 0.01 53 1008.9
20260508030504 50 291 0.0 0.0 0.00 0.01 0.01 54 1008.9
20260508030028 50 291 0.0 0.0 0.00 0.01 0.01 55 1009.0
20260508025503 50 281 0.0 0.0 0.00 0.01 0.01 53 1008.9
20260508025004 50 281 0.0 0.0 0.00 0.01 0.01 54 1008.9
20260508024518 50 281 0.0 0.0 0.00 0.01 0.01 54 1008.9
20260508024003 50 281 0.0 0.0 0.00 0.01 0.01 53 1008.8
20260508023503 50 295 0.0 0.0 0.00 0.01 0.01 53 1008.8
20260508023005 50 304 0.0 0.0 0.00 0.01 0.01 54 1008.8
20260508022503 50 304 0.0 0.0 0.00 0.01 0.01 54 1008.7
20260508022004 50 304 0.0 0.0 0.00 0.01 0.01 55 1008.8
20260508021505 50 304 0.0 0.0 0.00 0.01 0.01 55 1008.9
20260508021005 50 304 0.0 0.0 0.00 0.01 0.01 54 1008.9
20260508020504 50 304 0.0 0.0 0.00 0.01 0.01 54 1008.8
20260508020010 51 304 0.0 0.0 0.00 0.01 0.01 54 1008.8
20260508015504 51 304 0.0 0.0 0.00 0.01 0.01 53 1008.8
20260508015007 51 304 0.0 0.0 0.00 0.01 0.01 52 1008.8
20260508014514 51 304 0.0 0.0 0.00 0.01 0.01 53 1008.7
20260508014008 51 304 0.0 0.0 0.00 0.01 0.01 51 1008.4
20260508013505 51 304 0.0 0.0 0.00 0.01 0.01 51 1008.3
20260508013003 51 293 0.0 0.0 0.00 0.01 0.01 52 1008.2
20260508012503 52 292 0.0 0.0 0.00 0.01 0.01 50 1008.1
20260508012004 52 295 0.0 0.0 0.00 0.01 0.01 49 1008.1
20260508011506 52 295 0.0 0.0 0.00 0.01 0.01 50 1008.0
20260508011003 53 295 0.0 0.0 0.00 0.01 0.01 48 1008.0
20260508010503 53 295 0.0 0.0 0.00 0.01 0.01 47 1007.9
20260508010013 53 295 0.0 0.0 0.00 0.01 0.01 48 1007.9
20260508005505 54 295 0.0 0.0 0.00 0.01 0.01 44 1007.8
20260508005003 54 295 0.0 1.0 0.00 0.01 0.01 44 1007.8
20260508004513 54 295 0.0 1.0 0.00 0.01 0.01 44 1007.7
20260508004009 54 205 0.0 0.0 0.00 0.01 0.01 45 1007.6
20260508003506 54 205 0.0 0.0 0.00 0.01 0.01 43 1007.6
20260508003016 55 207 0.0 0.0 0.00 0.01 0.01 43 1007.6
20260508002507 55 176 0.0 0.0 0.00 0.01 0.01 43 1007.6
20260508002009 55 220 0.0 0.0 0.00 0.01 0.01 43 1007.6
20260508001519 55 220 0.0 0.0 0.00 0.01 0.01 42 1007.5
20260508001004 56 220 0.0 0.0 0.00 0.01 0.01 42 1007.5
20260508000507 56 221 0.0 0.0 0.00 0.01 0.01 42 1007.4
20260508000004 56 221 0.0 3.0 0.00 0.01 0.01 42 1007.4
20260507235504 56 131 0.0 3.0 0.00 0.01 0.01 41 1007.3
20260507235002 57 174 0.0 0.0 0.00 0.01 0.01 41 1007.2
20260507234510 57 217 0.0 0.0 0.00 0.01 0.01 40 1007.1
20260507234002 57 215 0.0 1.0 0.00 0.01 0.01 41 1007.0
20260507233504 57 215 0.0 1.0 0.00 0.01 0.01 39 1007.0
20260507233014 58 234 0.0 0.0 0.00 0.02 0.01 38 1006.9
20260507232508 58 191 0.0 4.0 0.00 0.02 0.01 39 1006.9
20260507232010 58 295 0.0 4.0 0.00 0.02 0.01 39 1006.9
20260507231524 58 217 0.0 1.0 0.00 0.02 0.01 37 1006.8
20260507231007 59 117 0.0 1.0 0.00 0.02 0.01 37 1006.8
20260507230508 59 207 0.0 1.0 0.00 0.02 0.01 37 1006.8
20260507230024 59 81 0.0 0.0 0.00 0.04 0.01 38 1006.7
20260507225505 59 268 0.0 7.0 0.00 0.05 0.01 37 1006.7
20260507225004 59 221 0.0 7.0 0.00 0.06 0.01 36 1006.7
20260507224507 60 290 0.0 9.0 0.00 0.06 0.01 37 1006.7
20260507224003 60 203 0.0 9.0 0.00 0.07 0.01 35 1006.7
20260507223504 60 1 0.0 9.0 0.00 0.08 0.01 37 1006.6
20260507223011 60 290 0.0 5.0 0.00 0.08 0.01 34 1006.5
20260507222502 60 134 0.0 7.0 0.00 0.08 0.01 34 1006.4
20260507222011 60 275 2.0 7.0 0.00 0.08 0.01 34 1006.5
20260507221516 61 197 0.0 4.0 0.00 0.08 0.01 35 1006.4
20260507221009 61 221 0.0 6.0 0.00 0.09 0.01 34 1006.4
20260507220508 61 6 0.0 7.0 0.00 0.09 0.01 34 1006.3
20260507220021 61 217 0.0 7.0 0.00 0.09 0.01 35 1006.4
20260507215508 61 15 0.0 6.0 0.00 0.09 0.01 34 1006.3
20260507215008 61 280 1.0 9.0 0.00 0.10 0.01 33 1006.2
20260507214526 62 292 2.0 9.0 0.00 0.10 0.01 34 1006.2
20260507214007 62 165 0.0 7.0 0.00 0.11 0.01 34 1006.2
20260507213504 62 232 0.0 9.0 0.00 0.12 0.01 33 1006.3
20260507213010 62 196 2.0 9.0 0.00 0.12 0.01 35 1006.2
20260507212504 63 360 0.0 12.0 0.00 0.12 0.01 33 1006.2
20260507212003 63 165 3.0 12.0 0.00 0.13 0.01 34 1006.3
20260507211513 63 356 0.0 11.0 0.00 0.13 0.01 34 1006.2
20260507211005 63 359 1.0 11.0 0.00 0.13 0.01 33 1006.1
20260507210507 64 278 1.0 9.0 0.00 0.13 0.01 32 1006.2
20260507210019 64 190 1.0 9.0 0.00 0.14 0.01 32 1006.2
20260507205507 65 333 0.0 8.0 0.00 0.16 0.01 33 1006.2
20260507205010 65 13 0.0 7.0 0.00 0.17 0.01 32 1006.1
20260507204522 66 172 0.0 7.0 0.00 0.18 0.01 30 1006.0
20260507204007 67 311 0.0 3.0 0.00 0.19 0.01 31 1006.2
20260507203507 67 290 0.0 8.0 0.00 0.20 0.01 30 1006.0
20260507203027 67 166 0.0 8.0 0.00 0.21 0.01 31 1006.1
20260507202509 68 293 0.0 12.0 0.00 0.22 0.01 31 1006.0
20260507202005 68 258 3.0 12.0 0.00 0.22 0.01 29 1006.1
20260507201511 67 309 0.0 7.0 0.00 0.23 0.01 31 1006.0
20260507201005 67 229 0.0 8.0 0.00 0.24 0.01 32 1006.0
20260507200507 67 236 2.0 8.0 0.00 0.24 0.01 31 1006.0
20260507200016 67 92 0.0 7.0 0.00 0.25 0.01 33 1006.0
20260507195504 68 354 0.0 15.0 0.00 0.25 0.01 32 1006.0
20260507195004 68 353 4.0 15.0 0.00 0.25 0.01 31 1006.1
20260507194523 69 213 1.0 8.0 0.00 0.25 0.01 31 1006.1
20260507194008 69 45 0.0 11.0 0.00 0.25 0.01 31 1006.2
20260507193507 69 251 1.0 11.0 0.00 0.25 0.01 33 1006.2
20260507193029 69 105 0.0 12.0 0.00 0.25 0.01 32 1006.2
20260507192508 69 316 2.0 12.0 0.00 0.25 0.01 31 1006.2
20260507192009 69 280 1.0 8.0 0.00 0.25 0.01 31 1006.3
20260507191529 69 4 0.0 10.0 0.00 0.25 0.01 36 1006.3
20260507191009 69 355 1.0 12.0 0.00 0.26 0.01 33 1006.4
20260507190510 69 70 0.0 12.0 0.00 0.26 0.01 32 1006.4
20260507190015 69 8 4.0 10.0 0.00 0.26 0.01 31 1006.5
20260507185506 69 288 0.0 9.0 0.00 0.27 0.01 31 1006.5
20260507185007 69 350 0.0 9.0 0.00 0.27 0.01 30 1006.4
20260507184517 69 309 2.0 9.0 0.00 0.28 0.01 32 1006.6
20260507184005 69 193 1.0 8.0 0.00 0.29 0.01 32 1006.7
20260507183508 69 284 0.0 9.0 0.00 0.30 0.01 33 1006.7
20260507183035 69 292 1.0 9.0 0.00 0.30 0.01 30 1007.0
20260507182508 69 283 0.0 7.0 0.00 0.31 0.01 31 1006.9
20260507182010 69 254 0.0 9.0 0.00 0.31 0.01 31 1007.1
20260507181526 70 358 0.0 9.0 0.00 0.32 0.01 30 1007.2
20260507181009 70 177 0.0 8.0 0.00 0.32 0.01 32 1007.3
20260507180510 69 16 1.0 11.0 0.00 0.32 0.01 32 1007.2
20260507180027 69 181 0.0 13.0 0.00 0.33 0.01 30 1007.2
20260507175509 69 284 0.0 13.0 0.00 0.33 0.01 33 1007.1
20260507175009 69 338 1.0 10.0 0.00 0.33 0.01 33 1007.1
20260507174514 69 248 3.0 10.0 0.00 0.33 0.01 34 1007.2
20260507174002 69 314 0.0 12.0 0.00 0.33 0.01 32 1007.1
20260507173502 68 136 1.0 12.0 0.00 0.33 0.01 35 1007.1
20260507173007 69 338 4.0 12.0 0.00 0.33 0.01 34 1007.1
20260507172504 69 236 3.0 11.0 0.00 0.33 0.01 34 1007.2
20260507172003 69 318 2.0 11.0 0.00 0.33 0.01 34 1007.0
20260507171504 68 207 0.0 11.0 0.00 0.33 0.01 33 1007.0
20260507171004 69 200 1.0 8.0 0.00 0.33 0.01 34 1007.1
20260507170504 68 163 0.0 8.0 0.00 0.33 0.01 36 1007.0
20260507170006 69 345 1.0 9.0 0.00 0.33 0.01 35 1007.2
20260507165503 69 311 1.0 9.0 0.00 0.33 0.01 40 1007.2
20260507165003 68 290 0.0 5.0 0.00 0.33 0.01 35 1007.3
20260507164507 68 321 0.0 4.0 0.00 0.33 0.01 38 1007.4
20260507164003 68 235 0.0 9.0 0.00 0.33 0.01 35 1007.5
20260507163506 67 294 0.0 9.0 0.00 0.33 0.01 37 1007.5
20260507163005 67 360 1.0 6.0 0.00 0.33 0.01 40 1007.5
20260507162503 66 169 0.0 10.0 0.00 0.33 0.01 36 1007.4
20260507162006 66 195 1.0 10.0 0.00 0.33 0.01 38 1007.6
20260507161504 66 359 1.0 10.0 0.00 0.33 0.01 37 1007.8
20260507161002 66 283 0.0 9.0 0.00 0.33 0.01 43 1007.9
20260507160506 66 233 0.0 15.0 0.00 0.33 0.01 39 1007.9
20260507160005 65 297 0.0 15.0 0.00 0.33 0.01 40 1008.0
20260507155503 65 202 1.0 6.0 0.00 0.33 0.01 39 1008.0
20260507155004 65 335 0.0 8.0 0.00 0.33 0.01 43 1007.9
20260507154506 65 1 0.0 10.0 0.00 0.33 0.01 43 1007.9
20260507154004 64 359 1.0 10.0 0.00 0.33 0.01 49 1007.8
20260507153504 63 69 1.0 10.0 0.00 0.33 0.01 47 1008.0
20260507153006 63 213 1.0 10.0 0.00 0.33 0.01 45 1008.1
20260507152503 62 41 1.0 10.0 0.00 0.33 0.01 50 1008.1
20260507152003 62 276 1.0 7.0 0.00 0.33 0.01 56 1008.2
20260507151506 62 236 1.0 4.0 0.00 0.33 0.01 57 1008.1
20260507151003 62 52 0.0 9.0 0.00 0.33 0.01 53 1008.1
20260507150505 62 243 1.0 9.0 0.00 0.33 0.01 51 1008.2
20260507150010 63 4 0.0 7.0 0.00 0.33 0.01 53 1008.2
20260507145501 63 139 1.0 10.0 0.00 0.33 0.01 53 1008.3
20260507145004 63 25 2.0 10.0 0.00 0.33 0.01 55 1008.2
20260507144509 62 248 1.0 8.0 0.00 0.33 0.01 55 1008.3
20260507144003 62 112 2.0 8.0 0.00 0.33 0.01 55 1008.4
20260507143503 62 231 1.0 5.0 0.00 0.33 0.01 55 1008.3
20260507143015 61 48 1.0 5.0 0.00 0.33 0.01 57 1008.3
20260507142505 60 209 1.0 7.0 0.00 0.33 0.01 59 1008.3
20260507142003 60 356 1.0 8.0 0.00 0.33 0.01 64 1008.3
20260507141508 59 269 2.0 8.0 0.00 0.33 0.01 59 1008.3
20260507141004 60 132 1.0 8.0 0.00 0.33 0.01 60 1008.2